CEB2892 RPLL-RPVM

Flight info

Callsign CEB2892
Flight time N/A
Altitude 23000
Route CONDE SAGRA MOLOC
Aircraft A320/M-V/N

Departure

Time 2026-05-05 16:36
Airport Ninoy Aquino International Airport (RPLL)

Arrival

Time N/A
Airport Mactan Cebu International Airport (RPVM)
Time Latitude Longitude Altitude Speed Heading
2026-05-05 16:08 14.50847 121.01302 84 ft 0 kts 329°
2026-05-05 16:25 14.50842 121.01305 84 ft 3 kts 329°
2026-05-05 16:25 14.50818 121.01321 84 ft 3 kts 329°
2026-05-05 16:26 14.50774 121.01350 84 ft 3 kts 306°
2026-05-05 16:26 14.50774 121.01382 84 ft 0 kts 235°
2026-05-05 16:28 14.50772 121.01379 84 ft 1 kts 235°
2026-05-05 16:28 14.50766 121.01370 84 ft 1 kts 236°
2026-05-05 16:28 14.50757 121.01356 84 ft 2 kts 236°
2026-05-05 16:28 14.50743 121.01336 84 ft 4 kts 228°
2026-05-05 16:29 14.50712 121.01324 84 ft 5 kts 180°
2026-05-05 16:29 14.50671 121.01311 84 ft 7 kts 217°
2026-05-05 16:29 14.50639 121.01266 84 ft 8 kts 239°
2026-05-05 16:29 14.50606 121.01208 84 ft 10 kts 240°
2026-05-05 16:30 14.50570 121.01142 84 ft 11 kts 240°
2026-05-05 16:30 14.50529 121.01068 84 ft 12 kts 240°
2026-05-05 16:30 14.50484 121.00987 84 ft 13 kts 240°
2026-05-05 16:30 14.50436 121.00899 84 ft 14 kts 240°
2026-05-05 16:31 14.50385 121.00807 83 ft 15 kts 240°
2026-05-05 16:31 14.50331 121.00710 83 ft 15 kts 240°
2026-05-05 16:31 14.50276 121.00610 84 ft 16 kts 240°
2026-05-05 16:31 14.50219 121.00507 84 ft 16 kts 240°
2026-05-05 16:32 14.50160 121.00401 84 ft 17 kts 240°
2026-05-05 16:32 14.50101 121.00294 84 ft 17 kts 240°
2026-05-05 16:32 14.50040 121.00184 84 ft 17 kts 240°
2026-05-05 16:32 14.49977 121.00073 84 ft 17 kts 240°
2026-05-05 16:33 14.49907 120.99971 84 ft 13 kts 196°
2026-05-05 16:33 14.49895 120.99969 84 ft 0 kts 185°
2026-05-05 16:33 14.49894 120.99969 84 ft 0 kts 184°
2026-05-05 16:33 14.49886 120.99969 84 ft 1 kts 173°
2026-05-05 16:34 14.49867 120.99974 84 ft 3 kts 161°
2026-05-05 16:34 14.49837 120.99988 84 ft 5 kts 151°
2026-05-05 16:34 14.49809 121.00028 83 ft 9 kts 102°
2026-05-05 16:34 14.49835 121.00106 84 ft 13 kts 60°
2026-05-05 16:35 14.49913 121.00246 84 ft 48 kts 60°
2026-05-05 16:35 14.50201 121.00765 84 ft 115 kts 60°
2026-05-05 16:35 14.50699 121.01661 85 ft 168 kts 60°
2026-05-05 16:35 14.51329 121.02790 408 ft 186 kts 60°
2026-05-05 16:36 14.51938 121.03917 1146 ft 178 kts 61°
2026-05-05 16:36 14.52530 121.05019 1755 ft 178 kts 60°
2026-05-05 16:36 14.53142 121.06145 2337 ft 180 kts 60°
2026-05-05 16:36 14.53757 121.07270 2913 ft 181 kts 60°
2026-05-05 16:37 14.54387 121.08415 3495 ft 183 kts 60°
2026-05-05 16:37 14.55021 121.09563 4080 ft 185 kts 60°
2026-05-05 16:37 14.55655 121.10708 4663 ft 186 kts 60°
2026-05-05 16:37 14.56299 121.11869 5252 ft 188 kts 60°
2026-05-05 16:38 14.56877 121.12946 5791 ft 189 kts 65°
2026-05-05 16:38 14.57267 121.14089 6316 ft 191 kts 78°
2026-05-05 16:38 14.57498 121.15615 6986 ft 192 kts 83°
2026-05-05 16:38 14.57549 121.16997 7566 ft 194 kts 104°
2026-05-05 16:39 14.56843 121.18172 8130 ft 195 kts 137°
2026-05-05 16:39 14.55818 121.19038 8711 ft 196 kts 143°
2026-05-05 16:39 14.54778 121.19851 9260 ft 198 kts 142°
2026-05-05 16:39 14.53687 121.20733 9830 ft 199 kts 141°
2026-05-05 16:40 14.52611 121.21640 10388 ft 201 kts 140°
2026-05-05 16:40 14.51542 121.22568 10937 ft 202 kts 140°
2026-05-05 16:40 14.50479 121.23508 11476 ft 204 kts 139°
2026-05-05 16:40 14.49393 121.24479 12020 ft 206 kts 139°
2026-05-05 16:41 14.48308 121.25456 12556 ft 207 kts 139°
2026-05-05 16:41 14.47244 121.26417 13074 ft 209 kts 139°
2026-05-05 16:41 14.46166 121.27393 13591 ft 210 kts 139°
2026-05-05 16:41 14.45067 121.28389 14110 ft 212 kts 139°
2026-05-05 16:42 14.43947 121.29405 14630 ft 214 kts 139°
2026-05-05 16:42 14.42867 121.30385 15122 ft 215 kts 139°
2026-05-05 16:42 14.41726 121.31420 15633 ft 217 kts 139°
2026-05-05 16:42 14.40601 121.32441 16128 ft 218 kts 139°
2026-05-05 16:43 14.39447 121.33488 16626 ft 220 kts 139°
2026-05-05 16:43 14.38300 121.34528 17111 ft 221 kts 139°
2026-05-05 16:43 14.37130 121.35590 17597 ft 223 kts 139°
2026-05-05 16:43 14.35946 121.36664 18079 ft 224 kts 139°
2026-05-05 16:44 14.34774 121.37726 18546 ft 226 kts 139°
2026-05-05 16:44 14.33583 121.38807 19011 ft 227 kts 139°
2026-05-05 16:44 14.32383 121.39894 19469 ft 229 kts 139°
2026-05-05 16:44 14.31194 121.40972 19916 ft 230 kts 139°
2026-05-05 16:45 14.29996 121.42059 20358 ft 232 kts 139°
2026-05-05 16:45 14.28778 121.43162 20800 ft 233 kts 139°
2026-05-05 16:45 14.27538 121.44286 21242 ft 235 kts 139°
2026-05-05 16:45 14.26324 121.45385 21666 ft 236 kts 139°
2026-05-05 16:46 14.25101 121.46493 22086 ft 237 kts 139°
2026-05-05 16:46 14.23856 121.47621 22479 ft 241 kts 139°
2026-05-05 16:46 14.22538 121.48814 22726 ft 254 kts 139°
2026-05-05 16:46 14.21172 121.50050 22984 ft 267 kts 139°
2026-05-05 16:47 14.19697 121.51383 22892 ft 294 kts 139°
2026-05-05 16:47 14.18082 121.52841 22859 ft 318 kts 139°
2026-05-05 16:47 14.16329 121.54423 22843 ft 341 kts 139°
2026-05-05 16:47 14.14484 121.56087 22835 ft 363 kts 139°
2026-05-05 16:48 14.12510 121.57868 22830 ft 383 kts 139°
2026-05-05 16:48 14.10454 121.59726 22827 ft 402 kts 139°
2026-05-05 16:48 14.08310 121.61662 22821 ft 413 kts 139°
2026-05-05 16:48 14.06102 121.63657 22819 ft 415 kts 139°
2026-05-05 16:49 14.03937 121.65615 22818 ft 415 kts 139°
2026-05-05 16:49 14.01765 121.67592 22817 ft 415 kts 139°
2026-05-05 16:49 13.99585 121.69578 22817 ft 415 kts 139°
2026-05-05 16:49 13.97396 121.71565 22817 ft 415 kts 139°
2026-05-05 16:50 13.95222 121.73534 22817 ft 415 kts 139°
2026-05-05 16:50 13.93040 121.75506 22817 ft 415 kts 139°
2026-05-05 16:50 13.90869 121.77465 22817 ft 415 kts 139°
2026-05-05 16:50 13.88652 121.79420 22816 ft 415 kts 141°
2026-05-05 16:51 13.86285 121.81185 22816 ft 415 kts 147°
2026-05-05 16:51 13.83803 121.82686 22817 ft 415 kts 153°
2026-05-05 16:51 13.81213 121.84009 22818 ft 415 kts 154°
2026-05-05 16:51 13.78564 121.85314 22817 ft 415 kts 154°
2026-05-05 16:52 13.75944 121.86597 22817 ft 415 kts 154°
2026-05-05 16:52 13.73323 121.87884 22817 ft 415 kts 154°
2026-05-05 16:52 13.70701 121.89175 22817 ft 415 kts 154°
2026-05-05 16:52 13.68091 121.90459 22817 ft 415 kts 154°
2026-05-05 16:53 13.65462 121.91756 22817 ft 415 kts 154°
2026-05-05 16:53 13.62859 121.93040 22817 ft 415 kts 154°
2026-05-05 16:53 13.60224 121.94339 22817 ft 415 kts 154°